Weather History for Newburgh, NY

Change the Weather History Date:

Wednesday, January 8, 2014

  Actual Average Record
Temperature  
Mean Temperature 11 °F -  
Max Temperature 19 °F 34 °F 64 °F (2008)
Min Temperature 3 °F 19 °F 0 °F (1986)
Degree Days  
Heating Degree Days 54    
Moisture  
Dew Point 1 °F    
Average Humidity 63    
Maximum Humidity 78    
Minimum Humidity 49    
Precipitation  
Precipitation 0.00 in - - ()
Sea Level Pressure  
Sea Level Pressure 30.44 in    
Wind  
Wind Speed 11 mph (West)    
Max Wind Speed 14 mph    
Max Gust Speed -    
Visibility 15 miles    
Events      
Averages and records for this station are not official NWS values.
T = Trace of Precipitation, MM = Missing Value Source: NWS Daily Summary

Daily Weather History Graph

Daily Weather History Graph

Search for Another Location

Airport:

Trip Planner

Search our weather history database for the weather conditions in past years. The results will help you decide how hot, cold, wet, or windy it might be!

Date:

Astronomy

Jan. 08, 2014 Rise Set
Actual Time 7:22 AM EST 4:43 PM EST
Civil Twilight 6:51 AM EST 5:14 PM EST
Nautical Twilight 6:17 AM EST 5:49 PM EST
Astronomical Twilight 5:43 AM EST 6:22 PM EST
Moon 11:37 AM EST (1/8) 12:22 AM EST (1/8)
Length of Visible Light 10h 23m
Length of Day
9h 21m
First Quarter, 56% of the Moon is Illuminated
Jan 8
First Quarter
Jan 15
Full
Jan 24
Last Quarter
Jan 30
New
Feb 6
First Quarter

Hourly Weather History & Observations

Time (EST) Temp. Windchill Dew Point Humidity Pressure Visibility Wind Dir Wind Speed Gust Speed Precip Events Conditions
12:45 AM 5.0 °F -10.8 °F -5.8 °F 61% 30.33 in 10.0 mi West 11.5 mph - N/A   Clear
2:45 AM 3.2 °F -13.1 °F -4.0 °F 72% 30.39 in 10.0 mi West 11.5 mph - N/A   Clear
3:45 AM 3.2 °F -13.1 °F -4.0 °F 72% 30.39 in 10.0 mi West 11.5 mph - N/A   Clear
4:45 AM 3.2 °F -13.1 °F -4.0 °F 72% 30.40 in 10.0 mi West 11.5 mph - N/A   Clear
5:45 AM 3.2 °F -13.1 °F -4.0 °F 72% 30.41 in 10.0 mi West 11.5 mph - N/A   Clear
6:45 AM 3.2 °F -13.1 °F -2.2 °F 78% 30.42 in 15.0 mi WNW 11.5 mph - N/A   Clear
7:45 AM 5.0 °F -10.8 °F -4.0 °F 66% 30.44 in 20.0 mi WNW 11.5 mph - N/A   Clear
8:45 AM 6.8 °F -10.0 °F -2.2 °F 67% 30.48 in 20.0 mi SW 13.8 mph - N/A   Clear
9:45 AM 10.4 °F - -0.4 °F 62% 30.49 in 20.0 mi North - - N/A   Clear
10:45 AM 12.2 °F -3.1 °F -0.4 °F 57% 30.49 in 20.0 mi West 13.8 mph - N/A   Clear
11:45 AM 14.0 °F 0.5 °F 1.4 °F 57% 30.46 in 20.0 mi West 11.5 mph - N/A   Clear
12:45 PM 15.8 °F 4.2 °F 3.2 °F 58% 30.43 in 20.0 mi WNW 9.2 mph - N/A   Clear
1:45 PM 17.6 °F 6.4 °F 3.2 °F 53% 30.43 in 20.0 mi WNW 9.2 mph - N/A   Clear
2:45 PM 19.4 °F 8.6 °F 3.2 °F 49% 30.43 in 20.0 mi West 9.2 mph - N/A   Clear
3:55 PM 19.4 °F 8.6 °F 3.2 °F 49% 30.43 in 20.0 mi West 9.2 mph - N/A   Clear
4:45 PM 17.6 °F 6.4 °F 5.0 °F 58% 30.44 in 20.0 mi West 9.2 mph - N/A   Scattered Clouds
7:45 PM 15.8 °F 4.2 °F 5.0 °F 62% 30.47 in 10.0 mi WSW 9.2 mph - N/A   Overcast
8:45 PM 14.0 °F 3.9 °F 5.0 °F 67% 30.47 in 10.0 mi WSW 6.9 mph - N/A   Scattered Clouds
9:45 PM 14.0 °F 3.9 °F 5.0 °F 67% 30.48 in 10.0 mi WSW 6.9 mph - N/A   Mostly Cloudy
10:45 PM 14.0 °F 3.9 °F 5.0 °F 67% 30.48 in 10.0 mi WSW 6.9 mph - N/A   Mostly Cloudy
11:45 PM 14.0 °F 3.9 °F 5.0 °F 67% 30.47 in 10.0 mi WSW 6.9 mph - N/A   Mostly Cloudy